User: anonymous   Login
Location: Unspecified
(40.9833°N, 0.0000°E)
Time: 17:01:19
(UTC+00:00)
Language:

FALCONSAT 3 - Orbit

View from above orbital plane
View from above orbital plane
View from above satellite
View from above satellite

Ground track
Ground track

The orbit data is extracted from the following two-line orbital elements,

1 30776U 07006E   19201.53219784 +.00000972 +00000-0 +28390-4 0  9992
2 30776 035.4342 247.4545 0002195 025.5777 334.5058 15.36281174685585
Epoch (UTC): 20 July 2019 12:46:21
Eccentricity: 0.0002195
inclination: 35.4342°
perigee height: 455 km
apogee height: 458 km
right ascension of ascending node: 247.4545°
argument of perigee: 25.5777°
revolutions per day: 15.36281174
mean anomaly at epoch: 334.5058°
orbit number at epoch: 68558

The dashed part of the orbit path shows where the satellite is in the earth's shadow,  

DLR